KD7TTL Weather Reports


Display with metric or nautical units.
time (UTC)temp
F
wind
direction
speed
MPH
gust
MPH
rain 1hr
in
rain 24hr
in
rain mn
in
humidity
%
barometer
mb
20260510102005 48 51 0.0 1.0 0.00 0.00 0.00 91 1018.3
20260510101512 48 9 0.0 1.0 0.00 0.00 0.00 91 1018.4
20260510101003 49 51 0.0 1.0 0.00 0.00 0.00 90 1018.2
20260510100504 49 51 0.0 1.0 0.00 0.00 0.00 91 1018.2
20260510100009 49 9 0.0 1.0 0.00 0.00 0.00 91 1018.2
20260510095504 49 93 0.0 1.0 0.00 0.00 0.00 91 1018.2
20260510095007 49 291 0.0 1.0 0.00 0.00 0.00 91 1018.2
20260510094525 49 34 0.0 1.0 0.00 0.00 0.00 91 1018.1
20260510094003 49 9 0.0 1.0 0.00 0.00 0.00 91 1018.1
20260510093502 49 51 0.0 1.0 0.00 0.00 0.00 91 1018.1
20260510093012 49 51 0.0 1.0 0.00 0.00 0.00 91 1018.0
20260510092503 49 325 0.0 2.0 0.00 0.00 0.00 91 1017.9
20260510092006 49 68 0.0 2.0 0.00 0.00 0.00 91 1017.9
20260510091520 49 34 0.0 2.0 0.00 0.00 0.00 91 1017.8
20260510091007 49 68 0.0 2.0 0.00 0.00 0.00 91 1017.7
20260510090503 50 9 0.0 2.0 0.00 0.00 0.00 91 1017.8
20260510090015 50 68 0.0 2.0 0.00 0.00 0.00 91 1017.7
20260510085504 50 9 0.0 1.0 0.00 0.00 0.00 91 1017.7
20260510085004 50 334 0.0 2.0 0.00 0.00 0.00 91 1017.6
20260510084512 50 34 0.0 2.0 0.00 0.00 0.00 91 1017.7
20260510084002 50 61 0.0 2.0 0.00 0.00 0.00 91 1017.7
20260510083501 50 9 0.0 1.0 0.00 0.00 0.00 91 1017.7
20260510083008 50 68 0.0 2.0 0.00 0.00 0.00 91 1017.7
20260510082503 50 9 0.0 3.0 0.00 0.00 0.00 91 1017.6
20260510082003 50 34 0.0 3.0 0.00 0.00 0.00 91 1017.5
20260510081514 50 41 0.0 2.0 0.00 0.00 0.00 92 1017.7
20260510081002 50 93 0.0 2.0 0.00 0.00 0.00 91 1017.7
20260510080502 50 309 0.0 2.0 0.00 0.00 0.00 91 1017.7
20260510080013 50 9 0.0 2.0 0.00 0.00 0.00 91 1017.6
20260510075502 50 316 0.0 2.0 0.00 0.00 0.00 91 1017.6
20260510075003 50 325 0.0 1.0 0.00 0.00 0.00 91 1017.6
20260510074512 50 9 0.0 2.0 0.00 0.00 0.00 91 1017.6
20260510074003 50 34 0.0 2.0 0.00 0.00 0.00 91 1017.7
20260510073511 50 9 0.0 1.0 0.00 0.00 0.00 91 1017.6
20260510073038 50 319 0.0 1.0 0.00 0.00 0.00 90 1017.6
20260510072509 51 51 0.0 1.0 0.00 0.00 0.00 90 1017.7
20260510072011 51 309 0.0 1.0 0.00 0.00 0.00 90 1017.7
20260510071529 51 9 0.0 1.0 0.00 0.00 0.00 90 1017.6
20260510071010 51 51 0.0 0.0 0.00 0.00 0.00 89 1017.5
20260510070510 51 9 0.0 1.0 0.00 0.00 0.00 89 1017.5
20260510070033 51 9 0.0 1.0 0.00 0.00 0.00 88 1017.4
20260510065504 51 9 0.0 1.0 0.00 0.00 0.00 88 1017.5
20260510065003 52 51 0.0 1.0 0.00 0.00 0.00 88 1017.5
20260510064509 52 51 0.0 1.0 0.00 0.00 0.00 88 1017.5
20260510064003 52 93 0.0 1.0 0.00 0.00 0.00 88 1017.5
20260510063503 52 51 0.0 1.0 0.00 0.00 0.00 88 1017.6
20260510063008 52 93 0.0 1.0 0.00 0.00 0.00 88 1017.7
20260510062503 52 51 0.0 1.0 0.00 0.00 0.00 88 1017.7
20260510062007 52 51 0.0 1.0 0.00 0.00 0.00 88 1017.7
20260510061508 52 51 0.0 1.0 0.00 0.00 0.00 89 1017.6
20260510061003 52 51 0.0 1.0 0.00 0.00 0.00 89 1017.6
20260510060504 52 93 0.0 1.0 0.00 0.00 0.00 89 1017.6
20260510060010 53 9 0.0 1.0 0.00 0.00 0.00 89 1017.7
20260510055504 53 265 0.0 1.0 0.00 0.00 0.00 89 1017.7
20260510055003 53 265 0.0 1.0 0.00 0.00 0.00 88 1017.7
20260510054508 53 9 0.0 1.0 0.00 0.00 0.00 88 1017.7
20260510054004 53 9 0.0 1.0 0.00 0.00 0.00 88 1017.6
20260510053503 53 51 0.0 1.0 0.00 0.00 0.00 88 1017.6
20260510053033 53 9 0.0 1.0 0.00 0.00 0.00 87 1017.6
20260510052502 54 51 0.0 1.0 0.00 0.00 0.00 87 1017.6
20260510052002 54 309 0.0 1.0 0.00 0.00 0.00 87 1017.7
20260510051511 54 325 0.0 1.0 0.00 0.00 0.00 86 1017.8
20260510051002 54 9 0.0 1.0 0.00 0.00 0.00 86 1017.8
20260510050502 55 309 0.0 1.0 0.00 0.00 0.00 85 1017.6
20260510050008 55 51 0.0 1.0 0.00 0.00 0.00 84 1017.6
20260510045504 55 9 0.0 1.0 0.00 0.00 0.00 84 1017.6
20260510045003 56 309 0.0 1.0 0.00 0.00 0.00 83 1017.7
20260510044508 56 51 0.0 0.0 0.00 0.00 0.00 83 1017.6
20260510044004 56 309 0.0 1.0 0.00 0.00 0.00 82 1017.6
20260510043504 56 51 0.0 1.0 0.00 0.00 0.00 82 1017.5
20260510043024 57 51 0.0 1.0 0.00 0.00 0.00 82 1017.4
20260510042505 57 9 0.0 1.0 0.00 0.00 0.00 81 1017.4
20260510042003 57 309 0.0 1.0 0.00 0.00 0.00 80 1017.4
20260510041521 58 325 0.0 1.0 0.00 0.00 0.00 80 1017.4
20260510041002 58 51 0.0 1.0 0.00 0.00 0.00 79 1017.4
20260510040502 59 309 0.0 1.0 0.00 0.00 0.00 79 1017.5
20260510040019 59 309 0.0 1.0 0.00 0.00 0.00 77 1017.5
20260510035503 60 51 0.0 1.0 0.00 0.00 0.00 76 1017.4
20260510035003 60 93 0.0 1.0 0.00 0.00 0.00 75 1017.4
20260510034521 60 51 0.0 1.0 0.00 0.00 0.00 74 1017.3
20260510034008 61 309 0.0 1.0 0.00 0.00 0.00 74 1017.3
20260510033508 61 9 0.0 1.0 0.00 0.00 0.00 72 1017.3
20260510033017 61 360 0.0 1.0 0.00 0.00 0.00 72 1017.3
20260510032508 62 265 0.0 1.0 0.00 0.00 0.00 72 1017.3
20260510032007 62 93 0.0 1.0 0.00 0.00 0.00 72 1017.3
20260510031523 62 93 0.0 1.0 0.00 0.00 0.00 71 1017.4
20260510031005 62 68 0.0 1.0 0.00 0.00 0.00 72 1017.4
20260510030508 63 9 0.0 1.0 0.00 0.00 0.00 71 1017.5
20260510030020 63 51 0.0 1.0 0.00 0.00 0.00 71 1017.4
20260510025507 63 51 0.0 1.0 0.00 0.00 0.00 70 1017.6
20260510025007 64 51 0.0 1.0 0.00 0.00 0.00 68 1017.7
20260510024520 64 51 0.0 1.0 0.00 0.00 0.00 69 1017.7
20260510024010 64 51 0.0 1.0 0.00 0.00 0.00 68 1017.8
20260510023506 64 9 0.0 2.0 0.00 0.00 0.00 70 1017.8
20260510023020 64 137 0.0 2.0 0.00 0.00 0.00 69 1017.7
20260510022508 64 38 0.0 2.0 0.00 0.00 0.00 71 1017.8
20260510022009 64 68 0.0 2.0 0.00 0.00 0.00 66 1017.9
20260510021536 64 93 0.0 2.0 0.00 0.00 0.00 65 1018.0
20260510021008 64 19 0.0 1.0 0.00 0.00 0.00 66 1018.0
20260510020509 64 51 0.0 2.0 0.00 0.00 0.00 65 1018.1
20260510020020 64 265 0.0 2.0 0.00 0.00 0.00 65 1018.1
20260510015508 65 51 0.0 2.0 0.00 0.00 0.00 65 1018.2
20260510015010 65 34 0.0 2.0 0.00 0.00 0.00 65 1018.3
20260510014529 65 93 0.0 2.0 0.00 0.00 0.00 64 1018.3
20260510014007 65 265 0.0 3.0 0.00 0.00 0.00 64 1018.4
20260510013509 65 51 0.0 4.0 0.00 0.00 0.00 64 1018.4
20260510013026 65 22 1.0 4.0 0.00 0.00 0.00 64 1018.4
20260510012507 65 61 2.0 4.0 0.00 0.00 0.00 63 1018.5
20260510012010 65 41 0.0 3.0 0.00 0.00 0.00 67 1018.6
20260510011525 65 120 1.0 3.0 0.00 0.00 0.00 65 1018.6
20260510011007 66 68 0.0 2.0 0.00 0.00 0.00 66 1018.6
20260510010508 66 57 1.0 2.0 0.00 0.00 0.00 64 1018.6
20260510010024 66 115 0.0 2.0 0.00 0.00 0.00 64 1018.7
20260510005509 66 9 0.0 7.0 0.00 0.00 0.00 66 1018.8
20260510005011 66 325 4.0 7.0 0.00 0.00 0.00 63 1018.7
20260510004531 66 45 2.0 4.0 0.00 0.00 0.00 63 1018.7
20260510004004 66 137 1.0 3.0 0.00 0.00 0.00 63 1018.9
20260510003504 66 205 0.0 2.0 0.00 0.00 0.00 64 1018.8
20260510003008 66 43 1.0 4.0 0.00 0.00 0.00 63 1018.9
20260510002503 66 51 0.0 4.0 0.00 0.00 0.00 63 1018.9
20260510002006 66 9 0.0 3.0 0.00 0.00 0.00 64 1019.0
20260510001509 66 131 1.0 4.0 0.00 0.00 0.00 64 1019.0
20260510001003 66 247 1.0 8.0 0.00 0.00 0.00 64 1019.1
20260510000503 66 75 4.0 8.0 0.00 0.00 0.00 62 1019.1
20260510000010 66 9 2.0 7.0 0.00 0.00 0.00 62 1019.2
20260509235505 66 41 2.0 6.0 0.00 0.00 0.00 64 1019.3
20260509235005 66 34 1.0 6.0 0.00 0.00 0.00 63 1019.3
20260509234507 66 15 4.0 6.0 0.00 0.00 0.00 62 1019.3
20260509234006 66 239 1.0 4.0 0.00 0.00 0.00 63 1019.3
20260509233501 66 325 1.0 4.0 0.00 0.00 0.00 63 1019.3
20260509233008 66 178 1.0 7.0 0.00 0.00 0.00 64 1019.4
20260509232503 66 205 1.0 7.0 0.00 0.00 0.00 62 1019.5
20260509232003 67 44 2.0 6.0 0.00 0.00 0.00 63 1019.7
20260509231506 67 24 2.0 5.0 0.00 0.00 0.00 62 1019.6
20260509231008 67 338 1.0 6.0 0.00 0.00 0.00 62 1019.6
20260509230504 67 51 2.0 6.0 0.00 0.00 0.00 63 1019.7
20260509230009 67 24 1.0 6.0 0.00 0.00 0.00 62 1020.0
20260509225503 67 205 2.0 7.0 0.00 0.00 0.00 63 1020.0
20260509225004 67 336 2.0 7.0 0.00 0.00 0.00 63 1020.1
20260509224509 67 93 1.0 11.0 0.00 0.00 0.00 61 1020.1
20260509224002 67 309 2.0 11.0 0.00 0.00 0.00 61 1020.0
20260509223504 68 48 3.0 9.0 0.00 0.00 0.00 59 1020.0
20260509223011 68 334 1.0 5.0 0.00 0.00 0.00 61 1020.1
20260509222502 68 292 2.0 8.0 0.00 0.00 0.00 59 1020.2
20260509222006 68 40 2.0 8.0 0.00 0.00 0.00 62 1020.1
20260509221513 68 265 1.0 11.0 0.00 0.00 0.00 60 1020.2
20260509221004 68 57 4.0 11.0 0.00 0.00 0.00 58 1020.2
20260509220504 68 286 1.0 8.0 0.00 0.00 0.00 57 1020.3
20260509220015 68 265 1.0 8.0 0.00 0.00 0.00 59 1020.3
20260509215504 68 334 1.0 9.0 0.00 0.00 0.00 60 1020.3
20260509215002 68 178 2.0 9.0 0.00 0.00 0.00 58 1020.4
20260509214510 68 76 1.0 8.0 0.00 0.00 0.00 60 1020.4
20260509214003 69 44 3.0 8.0 0.00 0.00 0.00 56 1020.4
20260509213503 69 51 1.0 7.0 0.00 0.00 0.00 56 1020.5
20260509213023 69 88 1.0 7.0 0.00 0.00 0.00 57 1020.5
20260509212510 69 93 1.0 5.0 0.00 0.00 0.00 56 1020.5
20260509212007 69 360 1.0 4.0 0.00 0.00 0.00 59 1020.6
20260509211508 69 309 1.0 4.0 0.00 0.00 0.00 58 1020.7
20260509211003 69 230 1.0 4.0 0.00 0.00 0.00 60 1020.7
20260509210504 69 239 0.0 5.0 0.00 0.00 0.00 56 1020.6
20260509210013 69 108 1.0 8.0 0.00 0.00 0.00 61 1020.6
20260509205503 68 183 2.0 8.0 0.00 0.00 0.00 59 1020.6
20260509205005 68 137 0.0 9.0 0.00 0.00 0.00 60 1020.7
20260509204508 68 93 3.0 9.0 0.00 0.00 0.00 59 1020.7
20260509204006 68 314 2.0 8.0 0.00 0.00 0.00 59 1020.8
20260509203504 68 64 3.0 6.0 0.00 0.00 0.00 60 1020.7
20260509203015 68 51 0.0 6.0 0.00 0.00 0.00 65 1020.8
20260509202503 67 59 1.0 6.0 0.00 0.00 0.00 64 1020.8
20260509202004 67 341 2.0 7.0 0.00 0.00 0.00 63 1021.0
20260509201510 67 146 2.0 7.0 0.00 0.00 0.00 63 1021.0
20260509201002 67 129 0.0 4.0 0.00 0.00 0.00 62 1021.2
20260509200503 66 325 1.0 4.0 0.00 0.00 0.00 63 1021.3
20260509200011 66 167 1.0 5.0 0.00 0.00 0.00 69 1021.4
20260509195504 66 22 2.0 6.0 0.00 0.00 0.00 67 1021.5
20260509195004 66 34 2.0 6.0 0.00 0.00 0.00 62 1021.5
20260509194510 66 148 0.0 7.0 0.00 0.00 0.00 65 1021.6
20260509194006 66 32 1.0 7.0 0.00 0.00 0.00 66 1021.6
20260509193505 66 123 1.0 6.0 0.00 0.00 0.00 67 1021.7
20260509193018 65 156 2.0 6.0 0.00 0.00 0.00 63 1021.8
20260509192504 65 61 2.0 6.0 0.00 0.00 0.00 63 1021.9
20260509192002 65 51 1.0 7.0 0.00 0.00 0.00 69 1022.0
20260509191510 65 169 2.0 7.0 0.00 0.00 0.00 68 1022.0
20260509191011 65 146 1.0 5.0 0.00 0.00 0.00 66 1021.9
20260509190514 65 9 1.0 5.0 0.00 0.00 0.00 64 1021.9
20260509190030 65 59 1.0 5.0 0.00 0.00 0.00 67 1022.0
20260509185511 64 137 1.0 5.0 0.00 0.00 0.00 64 1022.0
20260509185010 64 61 1.0 5.0 0.00 0.00 0.00 66 1022.2
20260509184540 64 129 2.0 6.0 0.00 0.00 0.00 66 1022.3
20260509184015 64 63 2.0 6.0 0.00 0.00 0.00 64 1022.3
20260509183512 64 105 2.0 5.0 0.00 0.00 0.00 64 1022.2
20260509183040 64 51 2.0 5.0 0.00 0.00 0.00 62 1022.2
20260509182511 63 19 1.0 7.0 0.00 0.00 0.00 67 1022.2
20260509182011 63 111 3.0 7.0 0.00 0.00 0.00 62 1022.2
20260509181528 64 212 2.0 8.0 0.00 0.00 0.00 66 1022.2
20260509181011 63 9 2.0 8.0 0.00 0.00 0.00 67 1022.2
20260509180512 63 59 2.0 6.0 0.00 0.00 0.00 63 1022.2
20260509180031 63 288 1.0 6.0 0.00 0.00 0.00 68 1022.1
20260509175515 63 129 2.0 6.0 0.00 0.00 0.00 65 1022.2
20260509175014 63 309 1.0 7.0 0.00 0.00 0.00 69 1022.2
20260509174528 63 221 1.0 7.0 0.00 0.00 0.00 68 1022.2
20260509174011 63 103 1.0 9.0 0.00 0.00 0.00 69 1022.3
20260509173517 63 51 1.0 9.0 0.00 0.00 0.00 68 1022.4
20260509173031 62 36 3.0 9.0 0.00 0.00 0.00 71 1022.3
20260509172513 62 334 0.0 6.0 0.00 0.00 0.00 71 1022.3
20260509172011 61 51 2.0 6.0 0.00 0.00 0.00 70 1022.4
20260509171531 61 120 2.0 6.0 0.00 0.00 0.00 70 1022.4
20260509171010 61 227 1.0 7.0 0.00 0.00 0.00 68 1022.4
20260509170510 61 39 3.0 7.0 0.00 0.00 0.00 67 1022.4
20260509170030 60 65 1.0 5.0 0.00 0.00 0.00 70 1022.5
20260509165511 60 108 1.0 4.0 0.00 0.00 0.00 69 1022.4
20260509165014 60 51 2.0 5.0 0.00 0.00 0.00 68 1022.5
20260509164527 59 93 1.0 5.0 0.00 0.00 0.00 70 1022.6
20260509164011 59 83 1.0 3.0 0.00 0.00 0.00 71 1022.7
20260509163513 59 137 1.0 5.0 0.00 0.00 0.00 74 1022.8
20260509163039 58 265 1.0 5.0 0.00 0.00 0.00 74 1022.8
20260509162513 58 265 1.0 6.0 0.00 0.00 0.00 75 1022.9
20260509162016 57 178 2.0 6.0 0.00 0.00 0.00 75 1023.0
20260509161530 57 334 1.0 6.0 0.00 0.00 0.00 76 1023.0
20260509161013 56 178 1.0 4.0 0.00 0.00 0.00 78 1023.0
20260509160510 56 149 2.0 4.0 0.00 0.00 0.00 78 1022.9
20260509160030 55 157 1.0 4.0 0.00 0.00 0.00 79 1023.0
20260509155510 55 149 1.0 4.0 0.00 0.00 0.00 80 1023.0
20260509155009 54 344 2.0 4.0 0.00 0.00 0.00 81 1022.9
20260509154529 54 34 2.0 5.0 0.00 0.00 0.00 82 1023.0
20260509154004 53 178 1.0 5.0 0.00 0.00 0.00 83 1022.9
20260509153502 53 51 1.0 4.0 0.00 0.00 0.00 85 1023.1
20260509153013 52 137 0.0 4.0 0.00 0.00 0.00 85 1023.1
20260509152503 52 171 0.0 4.0 0.00 0.00 0.00 87 1023.3
20260509152006 51 68 0.0 3.0 0.00 0.00 0.00 87 1023.4
20260509151508 51 61 1.0 4.0 0.00 0.00 0.00 88 1023.4
20260509151002 51 68 1.0 4.0 0.00 0.00 0.00 89 1023.4
20260509150506 50 51 0.0 2.0 0.00 0.00 0.00 91 1023.5
20260509150028 50 68 0.0 3.0 0.00 0.00 0.00 92 1023.6
20260509145503 49 239 0.0 3.0 0.00 0.00 0.00 92 1023.7
20260509145004 49 68 0.0 2.0 0.00 0.00 0.00 92 1023.6
20260509144510 49 80 0.0 2.0 0.00 0.00 0.00 92 1023.6
20260509144003 49 51 0.0 2.0 0.00 0.00 0.00 92 1023.9
20260509143503 48 34 0.0 2.0 0.00 0.00 0.00 92 1023.8
20260509143010 48 309 0.0 1.0 0.00 0.00 0.00 91 1023.8
20260509142505 48 51 0.0 1.0 0.00 0.00 0.00 91 1023.9
20260509142003 48 51 0.0 1.0 0.00 0.00 0.00 90 1023.8
20260509141508 48 93 0.0 1.0 0.00 0.00 0.00 90 1023.8
20260509141004 48 68 0.0 1.0 0.00 0.00 0.00 90 1023.9
20260509140506 49 51 0.0 1.0 0.00 0.00 0.00 90 1024.0
20260509140013 49 178 0.0 1.0 0.00 0.00 0.00 90 1024.0
20260509135502 49 51 0.0 2.0 0.00 0.00 0.00 90 1024.0
20260509135006 49 93 0.0 2.0 0.00 0.00 0.00 89 1023.9
20260509134512 49 41 0.0 1.0 0.00 0.00 0.00 89 1024.0
20260509134003 49 309 0.0 1.0 0.00 0.00 0.00 89 1023.9
20260509133503 49 68 0.0 1.0 0.00 0.00 0.00 88 1023.9
20260509133008 49 93 0.0 1.0 0.00 0.00 0.00 88 1023.9
20260509132505 50 51 0.0 1.0 0.00 0.00 0.00 89 1024.0
20260509132007 50 9 0.0 1.0 0.00 0.00 0.00 89 1023.9
20260509131511 50 34 0.0 1.0 0.00 0.00 0.00 89 1023.9
20260509131006 50 51 0.0 1.0 0.00 0.00 0.00 89 1023.9
20260509130503 50 51 0.0 1.0 0.00 0.00 0.00 89 1023.8
20260509130027 50 51 0.0 1.0 0.00 0.00 0.00 89 1023.9
20260509125505 50 34 0.0 1.0 0.00 0.00 0.00 89 1023.8
20260509125002 50 51 0.0 0.0 0.00 0.00 0.00 89 1023.9
20260509124511 50 93 0.0 0.0 0.00 0.00 0.00 89 1023.9
20260509124003 50 93 0.0 0.0 0.00 0.00 0.00 89 1023.9
20260509123503 50 51 0.0 0.0 0.00 0.00 0.00 89 1024.0
20260509123014 50 93 0.0 0.0 0.00 0.00 0.00 89 1024.0
20260509122504 50 51 0.0 0.0 0.00 0.00 0.00 89 1024.0
20260509122003 50 51 0.0 1.0 0.00 0.00 0.00 89 1024.0
20260509121511 50 93 0.0 1.0 0.00 0.00 0.00 89 1024.0
20260509121004 50 51 0.0 1.0 0.00 0.00 0.00 89 1024.1
20260509120504 50 51 0.0 1.0 0.00 0.00 0.00 89 1024.1
20260509120011 50 51 0.0 1.0 0.00 0.00 0.00 89 1024.1
20260509115504 50 51 0.0 1.0 0.00 0.00 0.00 89 1024.1
20260509115006 50 68 0.0 2.0 0.00 0.00 0.00 89 1024.1
20260509114512 50 51 0.0 2.0 0.00 0.00 0.00 89 1024.1
20260509114005 50 34 0.0 1.0 0.00 0.00 0.00 88 1024.1
20260509113503 50 51 0.0 1.0 0.00 0.00 0.00 88 1024.2
20260509113012 50 68 0.0 1.0 0.00 0.00 0.00 88 1024.2
20260509112503 50 51 0.0 1.0 0.00 0.00 0.00 88 1024.3
20260509112003 50 51 0.0 1.0 0.00 0.00 0.00 87 1024.3
20260509111511 50 51 0.0 1.0 0.00 0.00 0.00 87 1024.3
20260509111004 50 34 0.0 1.0 0.00 0.00 0.00 87 1024.4
20260509110505 50 68 0.0 1.0 0.00 0.00 0.00 87 1024.3
20260509110012 50 93 0.0 1.0 0.00 0.00 0.00 87 1024.3
20260509105503 50 68 0.0 1.0 0.00 0.00 0.00 87 1024.4
20260509105003 50 68 0.0 1.0 0.00 0.00 0.00 87 1024.5
20260509104511 50 93 0.0 1.0 0.00 0.00 0.00 87 1024.4
20260509104003 50 137 0.0 1.0 0.00 0.00 0.00 87 1024.4
20260509103503 50 137 0.0 1.0 0.00 0.00 0.00 87 1024.4
20260509103011 50 93 0.0 1.0 0.00 0.00 0.00 87 1024.4
20260509102503 50 120 0.0 1.0 0.00 0.00 0.00 87 1024.4